LEGION 4

Last updated on Fri Sep 19 2025 00:02:31 GMT+0000 (Coordinated Universal Time)

1 60453U 24146B 25261.08737605 .00004640 00000+0 25237-3 0 9992 2 60453 45.0381 140.8507 0011674 154.4762 205.6695 15.15756754 59580
UTC large
Height (km)
Speed (km/s)
/
Latitude / Longitude
Inclination (degrees)
Orbital Period (minutes)
Azimuth
Elevation
Range (km)
Doppler Factor

Next 0 passes for location: London (51.5072 / 0.1276)

Sorry there are no passes over London.